Regional Weather Roundup
Issued by NWS

Home | Current Version | Previous Version | Text Only | Print | Product List | Glossary Off
Versions: 1 2 3 4 5 6 7 8 9 10 11 12 13 14 15 16 17 18 19 20 21 22 23 24 25 26 27 28 29 30 31 32 33 34 35 36 37 38 39 40 41 42 43 44 45 46 47 48 49 50

000
ASUS43 KIND 292009
RWRIN

WEATHER ROUNDUP FOR INDIANA
NATIONAL WEATHER SERVICE INDIANAPOLIS IN
400 PM EDT FRI APR 29 2016

NOTE: "FAIR" INDICATES FEW OR NO CLOUDS BELOW 12,000 FEET WITH NO
SIGNIFICANT WEATHER AND/OR OBSTRUCTIONS TO VISIBILITY.

* - STATION DOES NOT REPORT WEATHER SUCH AS PRECIPITATION OR FOG.

+ - STATION NOT QUALITY CONTROLLED BY THE NATIONAL WEATHER SERVICE.
    USE DATA WITH CAUTION...ESPECIALLY DEWPOINT AND RELATIVE
    HUMIDITY OBSERVATIONS.

INZ001>003-010>013-019-020-292100-
NORTHWEST INDIANA

CITY           SKY/WX    TMP DP  RH WIND       PRES   REMARKS
GARY /AIRPORT/ CLOUDY    46  45  93 N12       30.12S
KNOX *+        CLOUDY    50  39  66 NW8G17    30.08S
LA PORTE +     CLOUDY    48  47  94 NW9       30.09S FOG
MICHIGAN CITY+ CLOUDY    43  43 100 NW6       30.10S FOG
MONTICELLO +   CLOUDY    53  42  66 NW3       30.06S
RENSSELAER +   CLOUDY    52  46  82 N5        30.08S
VALPARAISO     CLOUDY    47  41  80 NW8       30.09S

$$

LMZ046-743>745-292100-
SOUTHERN LAKE MICHIGAN

STATION/POSITION TIME  TEMP    WIND        PRES    WAVE
                       AIR SEA DIR/SP/G            HT
                 (UTC) (F)     (DEG/KT/KT) (MB)    (FT)
BURNS HARBOR     1900   42     340/  8/ 10 1020.0F
MICHIGAN CITY    1900   42     310/  8/  9   N/A

$$

INZ004-005-014>016-021>024-292100-
NORTH CENTRAL INDIANA

CITY           SKY/WX    TMP DP  RH WIND       PRES   REMARKS
ELKHART        CLOUDY    54  48  82 CALM      30.07F
GOSHEN         CLOUDY    53  45  74 E8        30.05F
LOGANSPORT +   CLOUDY    54  45  71 N3        30.07S
PERU/GRISSOM   CLOUDY    56  47  70 VRB3      30.05F
ROCHESTER +    CLOUDY    55  46  71 CALM      30.07S
SOUTH BEND     CLOUDY    50  44  80 NW8       30.07F
WARSAW +       CLOUDY    52  45  76 E3        30.06S

$$

INZ006>009-017-018-025>027-292100-
NORTHEAST INDIANA

CITY           SKY/WX    TMP DP  RH WIND       PRES   REMARKS
ANGOLA *+      CLOUDY    54  43  66 CALM      30.06S
AUBURN +       CLOUDY    54  43  66 CALM      30.07S
FORT WAYNE     CLOUDY    53  44  71 CALM      30.08R
HUNTINGTON +   CLOUDY   N/A N/A N/A N3        30.06F

$$

INZ028-029-035-036-043>045-051>053-292100-
WEST CENTRAL INDIANA

CITY           SKY/WX    TMP DP  RH WIND       PRES   REMARKS
CRAWFORDSVL +  MOSUNNY   57  49  72 CALM      30.07R
GREENCASTLE +  CLOUDY    61  50  67 N3        30.06R
LAFAYETTE      CLOUDY    56  46  69 N3        30.06S
TERRE HAUTE    CLOUDY    64  47  53 CALM      30.06R

$$

INZ030>032-037>040-046>048-054>057-064-065-292100-
CENTRAL INDIANA

CITY           SKY/WX    TMP DP  RH WIND       PRES   REMARKS
ANDERSON       PTSUNNY   59  46  63 NW6       30.07R
CP ATTERBURY + PTSUNNY   64  46  52 N5        30.04F
COLUMBUS       SUNNY     64  48  55 N8        30.04S
FISHERS *+     CLOUDY    59  52  77 NW3       30.06R
FRANKFORT +      N/A     57  39  50 CALM      30.08S
GREENWOOD *+   PTSUNNY   63  48  59 N5        30.05R
INDIANAPOLIS   CLOUDY    62  45  53 NW3       30.04R
-EAGLE CREEK   CLOUDY    62  48  60 VRB5      30.05R
KOKOMO *+      CLOUDY    57  46  67 N8        30.06R
MARION +       PTSUNNY   56  46  68 CALM      30.07R
SHELBYVILLE    CLOUDY    66  49  54 N7        30.04S
ZIONSVILLE +   CLOUDY    58  48  69 N5        30.06S

$$

INZ033-034-041-042-049-050-058-059-292100-
EAST CENTRAL INDIANA

CITY           SKY/WX    TMP DP  RH WIND       PRES   REMARKS
MUNCIE         CLOUDY    60  48  64 N8        30.06R

$$

INZ060-061-067>069-081>083-085>088-292100-
SOUTHWEST INDIANA

CITY           SKY/WX    TMP DP  RH WIND       PRES   REMARKS
EVANSVILLE     CLOUDY    66  50  56 CALM      30.04F
HUNTINGBURG *+ CLOUDY    66  52  59 W3        30.05S
WASHINGTON +   CLOUDY    65  51  61 W5        30.04F

$$

INZ062-063-066-070>080-084-089>092-292100-
SOUTH CENTRAL AND SOUTHEAST INDIANA

CITY           SKY/WX    TMP DP  RH WIND       PRES   REMARKS
BEDFORD +      PTSUNNY   66  57  72 CALM      30.03S
BLOOMINGTON    CLOUDY    66  48  52 VRB3      30.04S
MADISON *+     CLOUDY    68  45  42 CALM      30.05S
NORTH VERNON + CLOUDY    64  55  72 CALM      30.04
SEYMOUR +      CLOUDY    70  50  49 NE5       30.03S

$$





USA.gov is the U.S. government's official web portal to all federal, state and local government web resources and services.